Time,TemperatureF,DewpointF,PressureIn,WindDirection,WindDirectionDegrees,WindSpeedMPH,WindSpeedGustMPH,Humidity,HourlyPrecipIn,Conditions,Clouds,dailyrainin,SoftwareType,DateUTC
2013-03-07 00:00:00,45.0,33.0,29.91,West,280,11.0,-999.0,62,-99.99,,,-99.99,,2013-03-07 08:00:00,
2013-03-07 00:21:00,45.0,33.0,29.91,West,280,11.0,-999.0,62,-99.99,,,-99.99,,2013-03-07 08:21:00,
2013-03-07 00:31:00,45.0,33.0,29.91,West,280,11.0,-999.0,62,-99.99,,,-99.99,,2013-03-07 08:31:00,
2013-03-07 00:42:00,45.0,33.0,29.91,West,280,11.0,-999.0,62,-99.99,,,-99.99,,2013-03-07 08:42:00,
2013-03-07 00:52:00,45.0,33.0,29.91,West,280,11.0,-999.0,62,-99.99,,,-99.99,,2013-03-07 08:52:00,
2013-03-07 02:21:00,45.0,32.0,29.95,WNW,290,8.0,-999.0,60,-99.99,,,-99.99,,2013-03-07 10:21:00,
2013-03-07 02:31:00,45.0,32.0,29.95,WNW,290,8.0,-999.0,60,-99.99,,,-99.99,,2013-03-07 10:31:00,
2013-03-07 03:21:00,45.0,35.0,29.95,NW,310,7.0,-999.0,66,-99.99,,,-99.99,,2013-03-07 11:21:00,
2013-03-07 04:00:00,45.0,38.0,29.96,SW,230,3.0,-999.0,78,-99.99,,,-99.99,,2013-03-07 12:00:00,
2013-03-07 04:21:00,45.0,38.0,29.96,SW,230,3.0,-999.0,78,-99.99,,,-99.99,,2013-03-07 12:21:00,
2013-03-07 04:32:00,45.0,38.0,29.96,SW,230,3.0,-999.0,78,-99.99,,,-99.99,,2013-03-07 12:32:00,
2013-03-07 04:41:00,45.0,38.0,29.96,SW,230,3.0,-999.0,78,-99.99,,,-99.99,,2013-03-07 12:41:00,
2013-03-07 04:51:00,45.0,38.0,29.96,SW,230,3.0,-999.0,78,-99.99,,,-99.99,,2013-03-07 12:51:00,
2013-03-07 05:21:00,45.0,33.0,29.97,WNW,300,8.0,-999.0,63,-99.99,,,-99.99,,2013-03-07 13:21:00,
2013-03-07 06:41:00,45.0,29.0,29.98,NW,310,7.0,-999.0,53,-99.99,,,-99.99,,2013-03-07 14:41:00,
2013-03-07 08:21:00,45.0,36.0,30.01,ESE,120,2.0,-999.0,70,-99.99,,,-99.99,,2013-03-07 16:21:00,
2013-03-07 08:31:00,45.0,36.0,30.01,ESE,120,2.0,-999.0,70,-99.99,,,-99.99,,2013-03-07 16:31:00,
2013-03-07 09:00:00,44.0,40.0,30.03,SE,140,11.0,-999.0,86,-99.99,,,-99.99,,2013-03-07 17:00:00,
2013-03-07 09:21:00,44.0,40.0,30.03,SE,140,11.0,-999.0,86,-99.99,,,-99.99,,2013-03-07 17:21:00,
2013-03-07 09:31:00,44.0,40.0,30.03,SE,140,11.0,-999.0,86,-99.99,,,-99.99,,2013-03-07 17:31:00,
2013-03-07 09:41:00,44.0,40.0,30.03,SE,140,11.0,-999.0,86,-99.99,,,-99.99,,2013-03-07 17:41:00,
2013-03-07 09:52:00,44.0,40.0,30.03,SE,140,11.0,-999.0,86,-99.99,,,-99.99,,2013-03-07 17:52:00,
2013-03-07 10:00:00,45.0,39.0,30.05,SSE,160,9.0,-999.0,79,-99.99,,,-99.99,,2013-03-07 18:00:00,
2013-03-07 10:21:00,45.0,39.0,30.05,SSE,160,9.0,-999.0,79,-99.99,,,-99.99,,2013-03-07 18:21:00,
2013-03-07 10:31:00,45.0,39.0,30.05,SSE,160,9.0,-999.0,79,-99.99,,,-99.99,,2013-03-07 18:31:00,
2013-03-07 10:41:00,45.0,39.0,30.05,SSE,160,9.0,-999.0,79,-99.99,,,-99.99,,2013-03-07 18:41:00,
2013-03-07 10:51:00,45.0,39.0,30.05,SSE,160,9.0,-999.0,79,-99.99,,,-99.99,,2013-03-07 18:51:00,
2013-03-07 11:00:00,46.0,39.0,30.06,South,170,10.0,-999.0,76,-99.99,,,-99.99,,2013-03-07 19:00:00,
2013-03-07 11:21:00,46.0,39.0,30.06,South,170,10.0,-999.0,76,-99.99,,,-99.99,,2013-03-07 19:21:00,
2013-03-07 11:31:00,46.0,39.0,30.06,South,170,10.0,-999.0,76,-99.99,,,-99.99,,2013-03-07 19:31:00,
2013-03-07 11:51:00,46.0,39.0,30.06,South,170,10.0,-999.0,76,-99.99,,,-99.99,,2013-03-07 19:51:00,
2013-03-07 12:31:00,47.0,34.0,30.07,South,170,8.0,-999.0,61,-99.99,,,-99.99,,2013-03-07 20:31:00,
2013-03-07 14:31:00,48.0,32.0,30.07,WNW,300,8.0,-999.0,53,-99.99,,,-99.99,,2013-03-07 22:31:00,
2013-03-07 15:31:00,47.0,29.0,30.08,NW,320,8.0,-999.0,49,-99.99,,,-99.99,,2013-03-07 23:31:00,
2013-03-07 16:31:00,47.0,29.0,30.08,NW,320,11.0,-999.0,49,-99.99,,,-99.99,,2013-03-08 00:31:00,
2013-03-07 17:21:00,47.0,24.0,30.08,North,350,11.0,-999.0,39,-99.99,,,-99.99,,2013-03-08 01:21:00,
2013-03-07 17:31:00,47.0,24.0,30.08,North,350,11.0,-999.0,39,-99.99,,,-99.99,,2013-03-08 01:31:00,
2013-03-07 19:00:00,45.0,19.0,30.08,North,10,16.0,-999.0,34,-99.99,,,-99.99,,2013-03-08 03:00:00,
2013-03-07 20:21:00,44.0,22.0,30.08,North,360,13.0,-999.0,40,-99.99,,,-99.99,,2013-03-08 04:21:00,
2013-03-07 21:22:00,44.0,26.0,30.09,North,10,14.0,-999.0,47,-99.99,,,-99.99,,2013-03-08 05:22:00,
2013-03-07 21:31:00,44.0,26.0,30.09,North,10,14.0,-999.0,47,-99.99,,,-99.99,,2013-03-08 05:31:00,
2013-03-07 22:21:00,44.0,22.0,30.09,NNE,20,13.0,-999.0,42,-99.99,,,-99.99,,2013-03-08 06:21:00,
2013-03-07 22:31:00,44.0,22.0,30.09,NNE,20,13.0,-999.0,42,-99.99,,,-99.99,,2013-03-08 06:31:00,